Tracking 35331 objects as of 14-Sep-2026
HD Live streaming from Space Station
objects crossing your sky now

THOR ABLESTAR DEB

Track THOR ABLESTAR DEB now!
10-day predictions


NORAD ID: 13511
Int'l Code: 1961-015KU
Launch date: June 29, 1961
Source: United States (US)
Launch site: AIR FORCE EASTERN TEST RANGE (AFETR)

Note: This is SATELLITE DEBRIS
Your satellite tracking list
Your tracking list is empty




NASA's NSSDC Master Catalog

Two Line Element Set (TLE):
1 13511U 61015KU  26256.31715245  .00000092  00000-0  19289-3 0  9996
2 13511  65.8441   6.6060 0113477 134.3390 258.0601 13.67869289303158
Source of the keplerian elements: AFSPC